Location: Caltech
(34.1382°N, 118.1253°W)
Time: 15:02:20
(UTC-07:00)

Daily predictions for brighter satellites

Satellite Brightness Start Highest point End
(mag) Time Altitude Azimuth Time Altitude Azimuth Time Altitude Azimuth
COSMOS 2406 3.6 19:21:39 10° N 19:27:10 45° ENE 19:32:36 10° SE
Lacrosse 5 2.3 19:23:17 10° SSW 19:28:04 43° ESE 19:32:51 10° NE
Cosmos 2228 3.2 19:24:29 10° S 19:28:43 77° W 19:32:58 10° N
Cosmos 2298 Rocket 4.0 19:26:50 10° S 19:32:05 69° ESE 19:37:22 10° NNE
Delta 2 Rocket 3.7 19:27:49 10° W 19:32:42 72° N 19:36:58 10° E
SeaSat 1 2.7 19:32:08 10° SE 19:36:53 52° ENE 19:41:40 10° NNW
Cosmos 1844 3.7 19:31:46 10° S 19:37:27 69° ESE 19:43:13 10° NNE
FREGAT/IRIS 2.6 19:34:53 10° SSE 19:37:55 64° ENE 19:40:57 10° N
Aureole 1 Rocket 4.3 19:34:27 10° NNW 19:38:13 37° W 19:41:18 10° S
Cosmos 405 3.0 19:36:06 10° S 19:39:38 85° W 19:43:09 10° N
NOAA 12 4.3 19:37:26 10° S 19:42:45 82° WSW 19:48:05 10° NNW
CZ-3B DEB 3.6 19:30:04 10° SW 19:44:23 81° NW 19:50:42 10° NE
Helios 1A 4.4 19:50:45 13° ESE 19:52:53 19° ENE 19:55:47 10° NNE
Helios 1B rocket 3.5 19:51:04 10° NE 19:54:23 23° E 19:57:41 10° SSE
Cosmos 1437 Rocket 2.8 19:50:54 10° S 19:54:52 85° WNW 19:58:55 10° N
SJ-6B 2.8 19:52:15 10° S 19:55:59 78° W 19:59:43 10° NNW
Lacrosse 4 Rocket 2.7 19:56:25 10° SW 20:00:17 42° WNW 20:04:09 10° N
Meteor 1-22 Rocket 4.2 19:55:24 10° S 20:01:04 73° E 20:07:02 10° NNE
Resurs 1-3 3.8 20:00:50 10° SSE 20:05:02 48° ENE 20:09:16 10° N
Yuri Rocket 3.7 20:03:21 10° WSW 20:07:16 37° S 20:09:36 20° ESE
GPS 2-05 Rocket1 4.1 20:10:51 10° SSW 20:13:53 26° SSE 20:14:30 24° SE
Cosmos 1758 3.8 20:12:28 10° SSE 20:16:05 35° E 20:19:43 10° NNE
Spot 2 Rocket 3.4 20:12:40 10° SSE 20:17:45 77° ENE 20:22:51 10° N
Tiangong 1 2.4 20:17:10 10° NW 20:19:39 24° NNE 20:20:12 23° NE
Cosmos 2344 3.9 20:12:29 10° SW 20:20:09 70° WNW 20:28:26 10° NNE
SAR-Lupe-4 4.0 20:19:40 33° ESE 20:20:30 39° ENE 20:23:52 10° N
Cosmos 1844 Rocket 4.4 20:15:34 10° SW 20:20:43 36° WNW 20:25:54 10° N
In-Cosmos 22 4.1 20:17:55 10° N 20:23:08 56° E 20:27:42 13° SSE
Cosmos 1378 3.9 20:20:46 10° NNW 20:24:27 54° W 20:28:05 10° S
Cosmos 1939 Rocket 4.5 20:25:22 20° NE 20:25:22 20° NE 20:27:42 10° NNE
USA 186 3.6 20:28:05 13° N 20:28:05 13° N 20:28:26 10° N
Cosmos 1953 2.6 20:22:27 10° SSE 20:26:19 44° E 20:30:11 10° NNE
Cosmos 2278 Rocket 2.4 20:24:27 10° SSW 20:30:07 76° WNW 20:35:49 10° NNE
H-2A R/B 3.3 20:26:57 10° S 20:30:44 61° W 20:34:37 10° NNW
USA 215 3.2 20:27:06 10° NE 20:33:40 88° SE 20:40:12 10° SW
Cosmos 1833 Rocket 4.0 20:30:06 10° N 20:34:19 21° ENE 20:34:24 21° ENE
Okean 3 Rocket 3.5 20:30:28 10° N 20:34:49 65° E 20:36:57 29° SSE
Envisat 3.5 20:34:42 35° E 20:35:42 39° ENE 20:40:25 10° N
SAR-Lupe-1 4.0 20:39:57 63° ENE 20:39:57 63° ENE 20:43:28 10° N
Cosmos 1125 Rocket 3.4 20:36:35 10° S 20:41:42 65° ESE 20:46:51 10° NNE
Cosmos 2297 3.7 20:36:56 10° S 20:42:31 60° ESE 20:48:09 10° NNE
Meteor 1-4 Rocket 3.0 20:48:51 48° N 20:48:51 48° N 20:51:27 10° N
Cosmos 1544 3.5 20:46:24 10° SSW 20:49:59 60° W 20:53:36 10° N
ALOS 4.5 20:48:25 10° SSW 20:52:14 25° W 20:56:04 10° NW
GP-B 2.9 20:52:14 63° SE 20:52:47 73° E 20:57:13 10° N
Resurs 01 Rocket 3.1 20:49:51 10° SSW 20:53:52 35° W 20:57:56 10° NNW
ATLAS 5 CENTAUR R/B 4.0 20:49:51 10° S 20:50:05 11° S 20:50:05 11° S
SL-27 R/B 3.6 20:53:45 10° NNW 20:57:10 42° WSW 20:58:00 35° SW
RESURS DK-1 2.6 20:53:21 10° NNW 20:57:27 64° WSW 20:58:05 55° SSW
Meteor 1-29 3.6 20:56:44 10° N 21:00:08 55° WNW 21:00:09 55° WNW
ERS-1 Rocket 4.0 21:03:32 31° NE 21:03:32 31° NE 21:06:41 10° N
Cosmos 2082 Rocket 2.7 20:58:40 10° N 21:03:31 41° NE 21:03:31 41° NE
Cosmos 1818 3.9 21:01:46 10° NNW 21:06:41 49° NE 21:06:41 49° NE
Lacrosse 5 3.8 21:06:51 10° W 21:11:09 27° NW 21:15:28 10° NNE
Cosmos 1766 Rocket 4.3 21:09:11 10° N 21:12:21 45° N 21:12:21 45° N
Cosmos 1076 Rocket 3.9 21:09:47 10° NNW 21:13:29 59° NW 21:13:29 59° NW
Delta 2 Rocket 4.2 21:10:56 10° W 21:14:18 47° W 21:14:18 47° W
Cosmos 2100 Rocket 3.9 21:13:07 32° S 21:16:17 83° E 21:22:39 10° N
Cosmos 1269 Rocket 4.3 21:16:45 10° NNW 21:21:03 58° N 21:21:03 58° N
Cosmos 1802 Rocket 4.0 21:34:35 71° N 21:34:35 71° N 21:40:03 10° N
Cosmos 1867 4.5 21:33:05 10° SW 21:38:19 47° WNW 21:43:34 10° NNE
Cosmos 2061 Rocket 4.2 21:41:04 61° SW 21:42:03 71° W 21:48:29 10° N
Timation 2 Rocket 4.4 21:45:00 10° NNW 21:49:45 54° NNW 21:49:45 54° NNW
Cosmos 1833 Rocket 4.3 22:13:06 10° NW 22:16:08 30° NW 22:16:08 30° NW
